Wind_Speed
18 17 16 13 12 9 5 5 6 8 10 11 14 15 16 18 17 17 16 15 13 12 10 8 7 6 6 5 4 4 4 4 4 4 4 4 3 3 3 3 3 3 3
17 17 15 13 11 8 5 4 5 6 8 10 13 14 16 18 18 18 17 15 14 13 11 9 8 8 7 7 6 6 5 5 4 4 4 4 4 4 3 3 3 3 3
15 15 14 13 11 8 5 5 4 6 7 8 10 13 16 18 18 17 17 16 15 14 12 11 10 9 9 8 8 7 7 6 5 5 4 3 3 2 2 2 2 1 1
14 13 13 12 11 8 4 3 4 6 7 9 10 13 16 17 18 18 17 16 16 15 14 12 12 11 10 10 9 8 8 7 7 6 5 4 3 2 1 1 1 2 2
12 12 12 12 10 8 5 3 4 5 7 9 11 14 15 17 18 18 17 17 16 16 15 13 13 13 12 11 11 10 9 9 8 7 6 5 5 5 4 4 4 5 5
11 12 12 11 10 7 3 2 3 4 6 9 11 14 15 16 18 18 17 17 17 16 15 14 14 14 14 13 12 11 11 10 10 10 9 9 8 8 8 7 7 8 8
10 11 12 11 10 7 3 2 2 4 6 8 11 13 15 16 18 19 18 18 18 17 17 16 15 15 15 14 14 13 13 13 12 13 12 12 11 11 11 11 11 11 12
9 11 12 11 10 7 4 2 2 4 6 8 10 12 14 16 17 18 18 18 18 18 17 17 16 16 16 16 15 15 15 15 15 15 15 15 14 14 14 15 15 15 15
9 10 11 10 9 7 5 3 3 4 7 8 10 11 14 16 16 17 17 18 18 18 18 18 17 17 18 18 17 16 16 17 17 17 17 17 17 17 18 18 19 19 19
9 10 9 10 10 8 6 4 3 4 6 8 9 10 12 15 16 16 17 18 18 17 18 19 18 18 19 20 19 18 18 18 18 18 19 19 20 20 21 21 21 21 21
11 10 9 9 10 9 6 4 4 4 6 7 8 10 12 12 13 15 17 18 18 18 19 18 19 19 19 19 20 20 21 21 21 20 21 22 23 23 23 23 24 24 24
12 11 10 10 10 9 8 5 5 5 6 6 8 10 11 12 12 13 15 16 17 17 17 18 19 19 19 19 20 21 21 21 22 22 23 23 24 24 25 25 26 26 26
11 11 11 11 11 10 9 7 5 5 6 7 8 8 10 11 12 13 14 15 16 16 16 17 19 20 20 21 21 22 22 23 23 23 24 24 25 25 26 26 27 27 28
12 13 14 13 12 11 10 9 7 7 7 7 7 9 10 11 12 13 14 13 14 16 16 17 18 19 20 20 22 23 24 25 25 25 25 25 25 26 26 27 28 28 29
16 16 16 15 14 13 12 10 9 8 7 7 8 8 10 11 13 13 13 13 13 15 16 17 18 19 20 21 22 23 23 24 25 25 26 26 27 27 28 29 30 30 31
20 19 20 19 17 14 12 10 10 9 8 8 9 9 10 11 11 12 12 13 14 15 16 17 18 19 19 20 21 22 23 24 25 26 27 27 28 29 31 31 32 34 35
24 23 22 20 17 16 14 12 11 11 11 10 11 11 11 11 12 13 14 14 15 15 16 17 18 18 19 20 20 22 24 24 26 27 28 29 31 32 32 34 36 37 39
28 27 24 22 19 18 17 16 15 15 14 13 12 12 13 13 14 15 16 17 16 17 18 18 18 19 19 20 21 23 24 26 27 28 30 32 34 35 36 37 39 40 41
30 28 27 25 22 20 19 18 18 18 17 16 16 16 16 16 16 17 18 18 19 20 20 21 21 22 22 23 24 26 27 28 30 31 33 35 36 37 38 40 41 43 44
30 29 27 24 23 22 21 21 20 20 20 19 18 18 17 17 18 18 19 20 21 22 22 23 24 25 26 27 28 30 31 33 34 35 36 37 38 39 40 42 44 45 47
31 30 28 25 25 24 24 23 24 23 22 22 21 21 20 19 20 20 21 22 23 24 25 26 27 28 29 30 31 32 33 35 36 37 38 39 40 41 43 45 46 48 50
30 29 28 27 26 25 25 25 25 24 24 23 23 23 22 22 22 22 23 24 25 27 29 29 30 30 31 32 33 34 35 37 38 39 40 41 42 44 46 48 50 52 54
29 29 28 27 27 27 26 26 25 25 25 25 25 25 24 24 24 25 26 25 26 28 29 30 31 32 32 33 34 35 36 37 38 40 41 43 45 47 50 52 54 56 58
29 29 29 28 27 27 27 27 26 26 26 26 26 25 26 26 25 26 26 26 27 29 30 29 30 32 33 34 35 35 36 37 40 42 44 46 49 51 53 55 56 58 58
27 27 27 27 26 26 26 27 27 26 26 26 26 26 27 26 26 26 27 27 27 27 28 28 29 31 32 33 34 36 38 40 43 45 47 50 52 53 55 56 57 57 58
25 25 25 25 25 25 26 26 26 25 25 26 27 27 26 26 27 27 26 27 28 28 29 29 30 31 32 34 36 38 41 43 45 47 49 51 53 54 55 56 56 56 57
Wind_Direction
350 349 345 343 336 323 290 258 251 224 213 210 206 205 206 205 205 204 204 207 208 211 211 214 213 207 200 195 190 186 183 170 158 144 135 124 119 122 128 137 150 158 164
350 351 349 346 341 333 313 270 246 217 209 209 207 206 204 203 204 205 207 208 208 209 211 212 211 207 202 200 193 188 185 177 168 157 148 140 129 110 109 114 128 140 136
351 352 351 349 345 335 304 266 238 222 221 214 209 205 203 204 206 207 209 209 208 209 209 211 211 209 206 203 199 195 191 189 185 178 173 168 157 134 120 135 146 165 168
350 351 350 348 345 341 320 253 238 232 228 218 207 202 204 204 204 207 207 208 208 211 212 214 214 213 212 211 209 207 204 202 202 199 199 204 206 205 220 219 239 239 251
348 352 352 349 347 344 330 271 246 234 225 214 204 198 201 202 204 206 208 210 209 211 214 217 217 218 219 218 218 218 217 218 220 223 226 230 234 240 248 256 260 262 269
350 354 357 354 351 346 331 277 234 223 217 213 204 198 201 204 206 208 211 212 212 214 217 220 221 222 224 224 225 226 227 229 233 237 242 246 249 252 256 260 266 270 270
349 354 356 355 354 353 339 319 254 212 206 203 203 203 204 206 207 210 214 215 214 216 219 222 225 227 229 232 233 234 236 239 242 244 248 253 257 258 260 261 264 268 270
340 348 353 353 353 351 342 311 258 214 203 203 207 207 207 208 208 210 215 217 218 221 224 227 229 231 233 236 239 241 243 245 248 250 253 256 260 262 264 265 267 269 270
332 340 345 352 353 349 336 304 272 233 216 209 208 208 208 209 211 213 216 219 222 226 230 232 234 235 237 239 241 245 247 251 254 256 258 262 265 267 269 271 270 271 272
331 329 332 344 350 345 332 308 281 250 221 211 210 211 209 211 215 217 220 224 227 232 234 236 237 238 240 242 244 248 252 255 258 261 263 266 270 271 273 273 272 272 273
316 316 331 337 342 339 328 307 287 266 240 230 221 221 217 217 217 219 224 227 230 234 237 239 241 242 243 244 247 251 254 256 259 262 266 269 271 273 274 275 275 274 274
305 307 320 324 333 334 323 302 291 279 260 242 231 227 225 225 225 223 225 228 231 235 238 238 240 243 246 249 252 254 254 258 260 263 266 270 273 275 275 276 277 277 277
297 303 307 313 317 323 324 306 287 282 270 255 242 235 234 233 231 229 229 233 234 236 239 244 245 246 251 256 256 255 255 259 262 265 268 269 272 274 275 277 278 279 279
295 297 300 302 308 304 311 309 290 279 274 261 252 245 240 241 240 238 236 240 240 241 244 249 251 253 256 260 260 259 259 261 264 266 267 268 270 273 275 278 280 280 280
291 293 294 296 300 296 293 296 293 289 282 264 256 249 247 249 245 242 243 245 248 247 248 250 254 259 261 264 263 263 265 266 266 267 269 269 271 273 275 279 280 281 281
287 288 290 291 292 290 285 283 280 279 275 265 257 255 257 251 248 247 249 253 254 257 257 256 258 261 263 266 267 266 267 269 268 269 270 271 274 276 278 279 280 281 282
284 286 285 283 282 278 273 272 271 270 271 266 261 258 258 256 255 255 257 261 262 263 266 266 265 266 269 273 274 273 273 272 272 272 273 274 275 277 280 281 282 283 283
283 282 280 277 275 270 266 264 265 266 267 266 267 266 265 264 262 261 263 265 267 267 267 269 270 272 274 276 278 279 278 277 276 276 278 279 279 280 281 282 283 283 283
281 280 276 275 270 266 263 259 260 261 262 262 263 265 267 268 267 265 265 266 268 270 272 271 273 274 277 278 279 280 281 281 281 281 281 280 280 281 282 283 284 284 284
277 276 274 270 267 264 262 258 256 256 258 260 261 263 267 268 265 265 267 269 273 274 274 273 276 277 278 279 279 280 281 282 282 282 282 281 282 282 283 285 285 285 286
275 274 268 264 262 262 258 256 254 255 255 257 259 263 265 267 269 271 270 272 275 276 275 276 278 279 280 281 282 282 282 283 283 283 283 283 284 285 286 286 286 286 286
272 270 267 263 260 259 257 256 255 255 255 255 259 262 264 268 272 272 271 273 276 277 276 278 279 279 282 283 284 283 284 284 284 284 285 286 287 288 288 288 288 287 287
269 267 265 263 261 260 257 260 258 256 257 259 261 263 265 269 271 271 272 275 277 278 279 280 279 280 282 284 284 284 286 287 287 288 289 289 290 290 290 289 289 289 289
267 265 262 261 260 258 257 258 257 258 259 260 262 262 264 269 270 272 274 276 279 280 282 282 281 282 284 285 285 287 288 290 291 292 291 291 291 291 291 291 291 291 292
267 265 262 259 257 257 255 256 255 256 257 259 261 264 263 265 269 271 275 278 280 282 282 283 284 283 286 289 290 292 293 293 293 293 293 292 292 292 292 293 293 293 293
266 263 260 257 256 254 255 255 254 256 257 258 259 262 263 266 271 274 276 277 279 282 285 286 286 288 291 292 293 294 294 294 295 294 294 294 294 294 294 295 295 295 295
Height
5857 5854 5850 5847 5845 5843 5843 5843 5844 5845 5847 5849 5852 5855 5858 5861 5864 5867 5869 5871 5873 5875 5876 5878 5879 5880 5881 5881 5882 5882 5883 5883 5883 5883 5884 5884 5884 5883 5883 5883 5883 5883 5883
5857 5853 5850 5847 5844 5842 5841 5842 5842 5843 5845 5848 5850 5853 5855 5858 5861 5864 5866 5869 5871 5873 5874 5876 5877 5878 5880 5880 5881 5882 5882 5882 5883 5883 5884 5884 5885 5884 5884 5884 5883 5883 5883
5856 5853 5849 5846 5844 5842 5840 5840 5841 5842 5844 5846 5847 5850 5853 5856 5859 5861 5864 5866 5869 5870 5872 5874 5875 5877 5878 5879 5880 5881 5881 5882 5883 5883 5884 5884 5884 5884 5884 5884 5884 5883 5883
5854 5851 5848 5845 5843 5841 5839 5839 5840 5841 5842 5844 5845 5847 5850 5853 5856 5859 5861 5864 5866 5868 5870 5872 5874 5875 5876 5877 5878 5879 5880 5881 5882 5882 5883 5884 5884 5884 5884 5884 5884 5883 5883
5853 5850 5847 5844 5842 5840 5839 5838 5838 5839 5841 5842 5843 5845 5848 5851 5853 5856 5859 5861 5864 5866 5868 5870 5871 5873 5874 5875 5877 5878 5879 5880 5880 5881 5882 5882 5883 5883 5883 5883 5883 5883 5882
5850 5848 5846 5843 5841 5839 5838 5837 5837 5838 5839 5840 5841 5843 5846 5848 5851 5853 5856 5859 5861 5863 5865 5867 5869 5870 5872 5873 5875 5876 5877 5878 5878 5879 5880 5880 5881 5881 5881 5881 5881 5881 5880
5848 5847 5845 5843 5840 5838 5837 5836 5836 5837 5837 5838 5840 5842 5844 5846 5848 5851 5853 5856 5858 5861 5863 5865 5866 5868 5869 5871 5872 5873 5874 5875 5876 5876 5877 5877 5878 5878 5878 5878 5878 5878 5877
5847 5845 5844 5842 5839 5838 5837 5836 5835 5835 5836 5837 5839 5840 5842 5844 5846 5848 5851 5853 5855 5857 5859 5861 5863 5865 5866 5868 5869 5870 5871 5871 5872 5872 5873 5873 5874 5874 5874 5874 5874 5874 5873
5844 5844 5843 5841 5839 5838 5836 5836 5835 5834 5835 5836 5837 5838 5840 5842 5844 5846 5848 5850 5853 5854 5856 5858 5860 5861 5863 5864 5865 5866 5867 5868 5868 5868 5869 5869 5869 5869 5869 5869 5869 5869 5868
5843 5843 5842 5840 5839 5837 5836 5835 5834 5834 5834 5834 5836 5837 5838 5839 5841 5844 5846 5848 5850 5851 5853 5854 5856 5857 5859 5860 5861 5862 5863 5863 5864 5864 5864 5864 5864 5864 5864 5863 5863 5863 5863
5842 5841 5839 5839 5838 5837 5835 5834 5834 5833 5833 5833 5834 5835 5837 5838 5839 5841 5842 5844 5846 5848 5849 5851 5852 5853 5854 5855 5856 5857 5858 5858 5859 5859 5859 5858 5858 5858 5857 5857 5856 5856 5855
5839 5839 5838 5838 5837 5836 5834 5833 5833 5832 5832 5832 5833 5834 5835 5836 5837 5838 5840 5841 5842 5844 5845 5846 5847 5849 5850 5850 5851 5852 5852 5853 5853 5853 5853 5853 5852 5851 5851 5850 5849 5849 5848
5837 5837 5837 5836 5835 5834 5833 5831 5831 5831 5830 5830 5830 5831 5832 5834 5834 5835 5837 5838 5839 5840 5841 5842 5843 5844 5845 5846 5846 5846 5847 5847 5847 5847 5846 5846 5845 5845 5844 5843 5842 5841 5840
5834 5834 5834 5833 5833 5832 5831 5830 5829 5829 5828 5827 5828 5829 5830 5831 5832 5833 5833 5834 5835 5836 5837 5838 5838 5839 5840 5840 5840 5840 5841 5841 5841 5840 5840 5839 5838 5838 5837 5836 5835 5833 5832
5831 5831 5830 5829 5829 5829 5828 5827 5827 5826 5826 5825 5826 5826 5827 5828 5829 5829 5830 5831 5832 5832 5833 5834 5834 5835 5835 5835 5835 5835 5834 5834 5834 5834 5833 5832 5831 5830 5830 5828 5827 5825 5823
5826 5826 5826 5825 5824 5824 5823 5823 5823 5824 5823 5824 5824 5824 5824 5824 5825 5826 5827 5827 5828 5828 5829 5829 5830 5830 5830 5830 5829 5829 5828 5828 5827 5827 5826 5825 5824 5823 5821 5820 5818 5816 5814
5820 5820 5820 5819 5819 5819 5820 5819 5820 5821 5821 5820 5820 5820 5821 5821 5822 5823 5823 5824 5824 5824 5825 5825 5825 5825 5825 5824 5823 5823 5823 5822 5821 5820 5819 5817 5816 5814 5812 5810 5808 5806 5804
5814 5814 5813 5813 5813 5814 5814 5815 5816 5816 5817 5817 5817 5817 5818 5818 5818 5818 5819 5819 5819 5820 5820 5820 5820 5819 5819 5818 5818 5817 5816 5815 5814 5812 5811 5809 5807 5805 5803 5800 5798 5795 5792
5806 5806 5806 5806 5807 5808 5808 5809 5810 5811 5811 5812 5813 5813 5813 5814 5813 5813 5813 5814 5814 5814 5814 5814 5813 5812 5812 5811 5811 5810 5809 5807 5806 5804 5802 5800 5797 5795 5792 5789 5786 5782 5779
5798 5798 5798 5798 5800 5801 5802 5803 5804 5804 5805 5806 5807 5808 5808 5808 5808 5808 5808 5808 5808 5807 5807 5807 5806 5805 5804 5804 5803 5801 5800 5798 5796 5794 5792 5789 5786 5783 5780 5777 5773 5769 5765
5789 5789 5790 5791 5792 5793 5794 5796 5797 5798 5799 5800 5801 5801 5802 5802 5802 5801 5801 5801 5801 5801 5800 5799 5798 5798 5797 5796 5794 5792 5790 5788 5786 5784 5781 5778 5775 5771 5768 5764 5760 5756 5751
5780 5781 5782 5783 5783 5784 5786 5788 5789 5790 5791 5792 5793 5794 5795 5795 5795 5794 5794 5794 5794 5793 5792 5791 5790 5789 5788 5786 5784 5782 5780 5778 5775 5772 5769 5766 5762 5759 5755 5750 5746 5741 5735
5771 5773 5774 5775 5776 5777 5778 5780 5781 5783 5784 5785 5786 5787 5788 5788 5788 5787 5787 5787 5786 5785 5784 5783 5782 5780 5778 5776 5774 5772 5770 5767 5764 5760 5757 5753 5749 5744 5739 5735 5729 5724 5718
5763 5764 5765 5767 5768 5769 5770 5772 5774 5776 5777 5778 5779 5780 5781 5780 5780 5780 5779 5779 5778 5777 5776 5775 5773 5772 5770 5768 5765 5762 5759 5756 5752 5748 5744 5739 5734 5729 5723 5718 5712 5706 5700
5755 5755 5757 5758 5760 5761 5762 5764 5766 5768 5769 5770 5772 5772 5772 5773 5773 5773 5772 5772 5771 5769 5768 5767 5765 5763 5761 5758 5755 5752 5748 5744 5740 5735 5730 5724 5719 5713 5707 5700 5694 5688 5682
5747 5747 5749 5750 5752 5754 5755 5757 5759 5761 5762 5763 5764 5764 5765 5766 5766 5765 5765 5764 5763 5761 5760 5758 5756 5754 5751 5748 5745 5741 5736 5731 5726 5721 5715 5709 5703 5696 5690 5683 5677 5670 5664